[[{"header":{"parameterUnit":"m.s-1","parameterCategory":1,"la1":30.2991,"la2":30.254,"lo1":-89.0895,"lo2":-89.0444,"dy":0.0017,"dx":0.0017,"nx":28,"ny":28,"refTime":"2023-11-12T09:00:00:Z","depth":0,"parameterNumber":2,"parameterNumberName":"U-component_of_WINDS"},"data":[0,0,0,0,0,0,0,0,0,0,0,0,0,0,0,0,0,0,0,0,0,0,0,0,0,0,0,0,0,0,0,0,0,0,0,0,0,0,0,0,0,0,0,0,0,0,0,0,0,0,0,0,0,0,0,0,0,0,-3.8524,-3.8525,0,-3.8576,-3.8576,-3.8577,-3.8491,-3.8488,-3.8485,-3.8482,-3.8534,-3.8538,-3.8542,0,0,0,0,0,0,0,0,0,0,0,0,0,-3.8352,-3.8355,-3.8524,-3.8525,-3.8526,-3.8575,-3.8576,-3.8577,-3.8491,-3.8488,-3.8484,-3.8481,-3.8533,-3.8538,-3.8543,0,0,0,0,0,0,0,0,0,0,0,0,0,-3.8417,-3.8357,-3.8524,-3.8489,-3.8486,-3.8575,-3.8576,-3.8577,-3.8492,-3.8487,-3.8483,-3.8479,-3.8531,-3.8537,-3.8543,-3.8669,0,0,-3.8562,-3.8565,0,0,0,0,0,0,0,0,-3.8414,-3.8424,-3.8493,-3.8491,-3.8489,-3.8522,-3.8534,-3.8608,-3.8493,-3.849,-3.8482,-3.8477,-3.8534,-3.854,-3.8559,-3.8672,-3.8674,-3.8563,-3.8567,-3.8569,-3.8571,0,0,0,0,0,0,0,-3.8409,-3.8421,-3.8544,-3.8494,-3.8492,-3.847,-3.8475,-3.8548,-3.8536,-3.849,-3.8484,-3.8491,-3.8532,-3.8553,-3.8559,-3.8675,-3.8563,-3.8568,-3.8572,-3.8574,-3.8894,-3.8899,0,0,0,0,0,0,-3.8409,-3.8418,-3.8543,-3.8546,-3.844,-3.8477,-3.8482,-3.8516,-3.8535,-3.8533,-3.8494,-3.8487,-3.8545,-3.8552,-3.8561,-3.871,-3.8569,-3.8575,-3.8579,-3.8889,-3.8895,-3.89,0,0,0,0,0,0,-3.8406,-3.8421,-3.8541,-3.848,-3.8494,-3.8485,-3.8523,-3.8519,-3.854,-3.8538,-3.8536,-3.8519,-3.8541,-3.8552,-3.8643,-3.8711,-3.8578,-3.8583,-3.8884,-3.8891,-3.8898,-3.901,0,0,0,0,0,0,-3.8401,-3.842,-3.8468,-3.8482,-3.8497,-3.8623,-3.8527,-3.8523,-3.8551,-3.8542,-3.856,-3.8559,-3.8539,-3.8634,-3.8649,-3.8717,-3.8588,-3.8878,-3.8887,-3.8895,-3.9,-3.902,-3.9037,0,0,0,0,0,-3.8395,-3.8498,-3.8471,-3.8487,-3.8557,-3.8627,-3.8636,-3.861,-3.8557,-3.8605,-3.8604,-3.8559,-3.8701,-3.8644,-3.866,-3.8731,-3.8873,-3.8884,-3.8895,-3.8992,-3.9016,-3.9036,0,0,0,0,0,0,-3.8492,-3.8499,-3.847,-3.858,-3.8603,-3.8612,-3.8672,-3.8637,-3.8676,-3.8665,-3.8632,-3.8637,-3.8735,-3.8741,-3.8679,-3.8854,-3.8778,-3.8793,-3.8846,-3.8869,-3.8887,-3.8884,-3.8593,0,0,0,0,0,-3.8527,-3.8583,-3.8585,-3.8682,-3.8695,-3.8682,-3.8711,-3.869,-3.8713,-3.8722,-3.8728,-3.8752,-3.8802,-3.8835,-3.8881,-3.9,-3.9003,-3.9056,-3.9074,-3.909,-3.9103,-3.9167,-3.919,-3.8936,-3.8936,-3.8935,0,0,-3.8598,-3.8608,-3.8646,-3.8702,-3.8718,-3.8777,-3.8691,-3.8757,-3.88,-3.8732,-3.8819,-3.8824,-3.8848,-3.8954,-3.9,-3.8963,-3.9174,-3.9103,-3.9115,-3.9121,-3.918,-3.9204,-3.9226,-3.8943,-3.8942,-3.894,0,0,-3.8758,-3.8771,-3.8854,-3.8871,-3.8896,-3.8887,-3.8907,-3.8921,-3.8922,-3.9008,-3.8958,-3.9009,-3.9096,-3.9115,-3.9137,-3.9304,-3.9264,-3.932,-3.9417,-3.9479,-3.9499,-3.9517,-3.9578,-3.96,-3.9333,-3.9333,-3.9333,0,-3.8844,-3.8931,-3.8901,-3.897,-3.8996,-3.8937,-3.9021,-3.9039,-3.9078,-3.9097,-3.9054,-3.9162,-3.9174,-3.9284,-3.9325,-3.9344,-3.9365,-3.9318,-3.9499,-3.9516,-3.9532,-3.959,-3.9612,-3.934,-3.9339,-3.9339,-3.9338,0,-3.9035,-3.9096,-3.9159,-3.9199,-3.9232,-3.9308,-3.9289,-3.9326,-3.9301,-3.9296,-3.9385,-3.9398,-3.9445,-3.9469,-3.9446,-3.9576,-3.9551,-3.9504,-3.9428,-3.9564,-3.9617,-3.9639,-3.935,-3.9347,-3.9345,-3.9344,0,0,-3.9259,-3.928,-3.9304,-3.9322,-3.9345,-3.9391,-3.9464,-3.9511,-3.9544,-3.9572,-3.9633,-3.9707,-3.9664,-3.9688,-3.9666,-3.9721,-3.9853,-3.9666,-3.9666,-3.9702,-3.9998,-4.0035,-4.0061,-3.9826,-3.983,-3.9834,-3.9996,0,-3.9419,-3.9546,-3.9521,-3.9645,-3.9701,-3.9645,-3.9709,-3.973,-3.9727,-3.9774,-3.977,-3.9824,-3.9762,-3.9776,-3.9828,-3.9826,-3.9913,-3.9814,-3.9883,-3.9886,-3.988,-4.0088,-4.0127,-4.028,-4.0017,-4.002,-4.0023,0,-3.9624,-3.966,-3.979,-3.9804,-3.9826,-3.9884,-3.9925,-3.9971,-3.9993,-3.9987,-4.0014,-3.9982,-4.0054,-3.9976,-4.0075,-4.0009,-4.0035,-4.0039,-4.0044,-4.0051,-3.9964,-4.0102,-4.0328,-4.0352,-4.0055,-4.0053,-4.005,0,-3.9776,-3.9857,-3.9945,-3.9961,-3.998,-4.0022,-4.0031,-4.0049,-4.0079,-4.0114,-4.0133,-4.0176,-4.02,-4.0235,-4.0215,-4.0159,-4.0318,-4.0238,-4.0316,-4.0316,-4.0353,-4.0351,-4.0588,-4.0368,-4.0368,-4.0367,-4.0367,0,-3.9958,-4.004,-4.0014,-4.0068,-4.0158,-4.0128,-4.0218,-4.022,-4.0237,-4.0291,-4.0245,-4.0296,-4.0266,-4.0315,-4.0299,-4.0385,-4.0396,-4.0393,-4.0388,-4.0398,-4.0399,-4.0416,-4.0405,-4.0373,-4.0372,-4.0371,-4.037,0,-4.0144,-4.0129,-4.0222,-4.0231,-4.0236,-4.0302,-4.031,-4.036,-4.0353,-4.0422,-4.0437,-4.0426,-4.0481,-4.0464,-4.0524,-4.0513,-4.0622,-4.0603,-4.0615,-4.0611,-4.069,-4.0683,-4.0948,-4.0981,-4.0738,-4.0741,-4.0743,0,-4.0262,-4.0323,-4.034,-4.0372,-4.0386,-4.0439,-4.0469,-4.0441,-4.0474,-4.0504,-4.0552,-4.0603,-4.0643,-4.0734,-4.0731,-4.0777,-4.0759,-4.0849,-4.0766,-4.0774,-4.0762,-4.0759,-4.0765,-4.0866,-4.0868,-4.0871,-4.0873,0,-4.0473,-4.0463,-4.0508,-4.0551,-4.0588,-4.062,-4.0648,-4.0678,-4.0652,-4.0691,-4.0748,-4.0778,-4.0839,-4.0891,-4.0932,-4.0941,-4.0904,-4.0898,-4.0919,-4.093,-4.0935,-4.0935,-4.0661,-4.0893,-4.0891,-4.0889,-4.0888,-4.0887,-4.0629,-4.0682,-4.0701,-4.0753,-4.0771,-4.0799,-4.0847,-4.0846,-4.0892,-4.094,-4.092,-4.0985,-4.1005,-4.1057,-4.1072,-4.1122,-4.1087,-4.1117,-4.1125,-4.1133,-4.1144,-4.0926,-4.1129,-4.1128,-4.1128,-4.1127,-4.1127,0,-4.0839,-4.0849,-4.0897,-4.0938,-4.0979,-4.0938,-4.0967,-4.1004,-4.1062,-4.1084,-4.1124,-4.1189,-4.1238,-4.124,-4.1286,-4.1326,-4.131,-4.1339,-4.1337,-4.134,-4.1171,-4.1149,-4.1352,-4.1352,-4.1352,-4.1352,-4.1351,-4.1351,-4.0954,-4.104,-4.1032,-4.1127,-4.1136,-4.12,-4.122,-4.1245,-4.1262,-4.1336,-4.1378,-4.1378,-4.1392,-4.1439,-4.1483,-4.1481,-4.1501,-4.1538,-4.1531,-4.1374,-4.1351,-4.133,-4.1309,-4.1542,-4.1542,-4.1695,-4.1696,-4.1697]},{"header":{"parameterUnit":"m.s-1","parameterCategory":1,"la1":30.2991,"la2":30.254,"lo1":-89.0895,"lo2":-89.0444,"dy":0.0017,"dx":0.0017,"nx":28,"ny":28,"refTime":"2023-11-12T09:00:00:Z","depth":0,"parameterNumber":3,"parameterNumberName":"V-component_of_WINDS"},"data":[0,0,0,0,0,0,0,0,0,0,0,0,0,0,0,0,0,0,0,0,0,0,0,0,0,0,0,0,0,0,0,0,0,0,0,0,0,0,0,0,0,0,0,0,0,0,0,0,0,0,0,0,0,0,0,0,0,0,-4.4272,-4.4272,0,-4.4278,-4.4278,-4.4278,-4.4213,-4.4212,-4.421,-4.4208,-4.4214,-4.4216,-4.4218,0,0,0,0,0,0,0,0,0,0,0,0,0,-4.42,-4.4202,-4.4271,-4.4272,-4.4272,-4.4278,-4.4278,-4.4278,-4.4214,-4.4212,-4.4209,-4.4207,-4.4213,-4.4216,-4.4218,0,0,0,0,0,0,0,0,0,0,0,0,0,-4.4222,-4.4203,-4.4271,-4.424,-4.4237,-4.4278,-4.4278,-4.4278,-4.4214,-4.4212,-4.4209,-4.4206,-4.4213,-4.4215,-4.4218,-4.4289,0,0,-4.4226,-4.4228,0,0,0,0,0,0,0,0,-4.4221,-4.4224,-4.4245,-4.4242,-4.4239,-4.4242,-4.4255,-4.4282,-4.4215,-4.4223,-4.4208,-4.4205,-4.4226,-4.4227,-4.4234,-4.4289,-4.4289,-4.4227,-4.4228,-4.4229,-4.423,0,0,0,0,0,0,0,-4.4219,-4.4224,-4.4274,-4.4245,-4.4242,-4.4225,-4.4225,-4.426,-4.4239,-4.4222,-4.4217,-4.4219,-4.4224,-4.4232,-4.4234,-4.4289,-4.4227,-4.4229,-4.4231,-4.4232,-4.4401,-4.4404,0,0,0,0,0,0,-4.4222,-4.4223,-4.4274,-4.4274,-4.4223,-4.4229,-4.4229,-4.4244,-4.4239,-4.4235,-4.4221,-4.4216,-4.4228,-4.4231,-4.4234,-4.4315,-4.4229,-4.4232,-4.4234,-4.4398,-4.4402,-4.4405,0,0,0,0,0,0,-4.4221,-4.4227,-4.4274,-4.4247,-4.4252,-4.4233,-4.4251,-4.4246,-4.4254,-4.4238,-4.4234,-4.4234,-4.4226,-4.423,-4.4275,-4.4315,-4.4233,-4.4236,-4.4395,-4.44,-4.4404,-4.448,0,0,0,0,0,0,-4.4219,-4.4227,-4.4255,-4.4248,-4.4254,-4.4316,-4.4253,-4.4248,-4.4259,-4.4252,-4.4249,-4.4245,-4.4224,-4.4272,-4.4278,-4.4317,-4.4238,-4.4391,-4.4397,-4.4402,-4.4474,-4.4486,-4.4497,0,0,0,0,0,-4.4217,-4.4276,-4.4256,-4.4263,-4.4287,-4.4318,-4.4321,-4.4296,-4.4262,-4.4289,-4.4279,-4.4246,-4.431,-4.4277,-4.4284,-4.4324,-4.4389,-4.4396,-4.4402,-4.4468,-4.4484,-4.4496,0,0,0,0,0,0,-4.4287,-4.4274,-4.4253,-4.4311,-4.4316,-4.4307,-4.434,-4.4313,-4.4328,-4.4321,-4.4288,-4.4288,-4.4339,-4.4336,-4.43,-4.4391,-4.4343,-4.4351,-4.4391,-4.4406,-4.4417,-4.4416,-4.424,0,0,0,0,0,-4.4309,-4.4336,-4.4323,-4.4376,-4.438,-4.436,-4.4372,-4.4353,-4.4356,-4.4358,-4.4351,-4.4356,-4.4377,-4.4391,-4.441,-4.4473,-4.4471,-4.4504,-4.4515,-4.4525,-4.4532,-4.4564,-4.4579,-4.4426,-4.4426,-4.4426,0,0,-4.4355,-4.4352,-4.437,-4.439,-4.4392,-4.4419,-4.4362,-4.4394,-4.4414,-4.4363,-4.4405,-4.44,-4.4403,-4.4458,-4.4481,-4.4457,-4.4574,-4.4533,-4.4541,-4.4543,-4.4572,-4.4587,-4.46,-4.4431,-4.443,-4.4429,0,0,-4.4453,-4.4454,-4.4497,-4.45,-4.4503,-4.4489,-4.45,-4.4495,-4.449,-4.4532,-4.4494,-4.4517,-4.4554,-4.4557,-4.4564,-4.4662,-4.4632,-4.4669,-4.473,-4.4761,-4.4773,-4.4784,-4.4818,-4.4831,-4.4677,-4.4677,-4.4677,0,-4.451,-4.455,-4.4523,-4.4557,-4.4567,-4.4522,-4.4565,-4.4569,-4.4578,-4.4585,-4.4558,-4.4603,-4.4602,-4.4656,-4.468,-4.4687,-4.4697,-4.4669,-4.4774,-4.4784,-4.4794,-4.4826,-4.4839,-4.4681,-4.4681,-4.468,-4.468,0,-4.4619,-4.4648,-4.4683,-4.4693,-4.4706,-4.4745,-4.4723,-4.4739,-4.4718,-4.4707,-4.475,-4.4747,-4.4764,-4.4776,-4.4756,-4.4827,-4.4811,-4.478,-4.473,-4.4813,-4.4843,-4.4855,-4.4688,-4.4686,-4.4685,-4.4684,0,0,-4.4761,-4.4755,-4.4768,-4.4772,-4.4772,-4.4793,-4.483,-4.4846,-4.486,-4.4868,-4.4897,-4.4929,-4.49,-4.4907,-4.4887,-4.4915,-4.4992,-4.488,-4.4879,-4.49,-4.507,-4.5093,-4.5108,-4.4973,-4.4975,-4.4977,-4.5069,0,-4.4856,-4.4918,-4.4894,-4.4958,-4.4983,-4.4941,-4.4972,-4.4975,-4.4966,-4.4986,-4.4975,-4.4998,-4.4958,-4.4962,-4.4988,-4.4978,-4.5026,-4.4971,-4.4998,-4.5,-4.4998,-4.5123,-4.5148,-4.5236,-4.5081,-4.5083,-4.5084,0,-4.4975,-4.4987,-4.5053,-4.5048,-4.5058,-4.5087,-4.5099,-4.5119,-4.5121,-4.5112,-4.5121,-4.5094,-4.5129,-4.508,-4.5127,-4.509,-4.51,-4.5097,-4.5099,-4.51,-4.5046,-4.5127,-4.5263,-4.5276,-4.5102,-4.5101,-4.51,0,-4.507,-4.5104,-4.5147,-4.5152,-4.5147,-4.5168,-4.5167,-4.5166,-4.5177,-4.5188,-4.5195,-4.521,-4.5218,-4.523,-4.5208,-4.5175,-4.5258,-4.5208,-4.5251,-4.5251,-4.5269,-4.5268,-4.5408,-4.5278,-4.5278,-4.5277,-4.5277,0,-4.5178,-4.522,-4.519,-4.5217,-4.5262,-4.5234,-4.5279,-4.5274,-4.5274,-4.5298,-4.5262,-4.5286,-4.5256,-4.5276,-4.526,-4.53,-4.5304,-4.5298,-4.5292,-4.53,-4.5301,-4.5306,-4.5299,-4.5281,-4.528,-4.5279,-4.5279,0,-4.5292,-4.5274,-4.5318,-4.531,-4.5309,-4.5343,-4.5335,-4.5359,-4.5347,-4.5378,-4.5384,-4.5365,-4.5388,-4.5367,-4.5388,-4.5377,-4.5431,-4.5417,-4.543,-4.5426,-4.547,-4.5466,-4.5617,-4.5635,-4.5494,-4.5495,-4.5496,0,-4.5362,-4.5393,-4.5388,-4.5402,-4.5403,-4.5425,-4.5436,-4.541,-4.5423,-4.5428,-4.5451,-4.547,-4.5484,-4.5521,-4.5509,-4.5525,-4.5511,-4.5563,-4.5513,-4.552,-4.5511,-4.5509,-4.5512,-4.5573,-4.5575,-4.5576,-4.5577,0,-4.5487,-4.5476,-4.5493,-4.5508,-4.5522,-4.5532,-4.5539,-4.5552,-4.5525,-4.5541,-4.5564,-4.5574,-4.5596,-4.5615,-4.5627,-4.5625,-4.5597,-4.5593,-4.5604,-4.5612,-4.5617,-4.5614,-4.5457,-4.559,-4.5588,-4.5587,-4.5587,-4.5586,-4.558,-4.5605,-4.5605,-4.5626,-4.5628,-4.5636,-4.5657,-4.5648,-4.5666,-4.5682,-4.5665,-4.5692,-4.5693,-4.5706,-4.5708,-4.5728,-4.5706,-4.5722,-4.5725,-4.573,-4.5735,-4.5615,-4.573,-4.573,-4.5729,-4.5729,-4.5729,0,-4.5702,-4.57,-4.5719,-4.573,-4.5746,-4.5718,-4.5724,-4.5739,-4.5763,-4.5767,-4.5781,-4.5806,-4.5824,-4.5814,-4.583,-4.5848,-4.5835,-4.5853,-4.5851,-4.5851,-4.5755,-4.5743,-4.5863,-4.5863,-4.5863,-4.5863,-4.5863,-4.5863,-4.5767,-4.5808,-4.5797,-4.5839,-4.5836,-4.5863,-4.5868,-4.5875,-4.5877,-4.5907,-4.5922,-4.5915,-4.5912,-4.5928,-4.5943,-4.5939,-4.5946,-4.5969,-4.5961,-4.5871,-4.5858,-4.5845,-4.5834,-4.5971,-4.5971,-4.6055,-4.6055,-4.6056]}]]